WA7ZVY-4 Weather Reports


Display with metric or nautical units.
time (UTC)temp
F
wind
direction
speed
MPH
gust
MPH
rain 1hr
in
rain 24hr
in
rain mn
in
humidity
%
barometer
mb
20260902031807 59 203 9.0 12.0 0.00 0.00 0.00 93 1010.7
20260902031736 59 211 7.0 12.0 0.00 0.00 0.00 93 1010.7
20260902031250 59 214 4.0 12.0 0.00 0.00 0.00 93 1010.6
20260902031229 59 214 4.0 12.0 0.00 0.00 0.00 93 1010.7
20260902030722 59 190 8.0 12.0 0.00 0.00 0.00 92 1010.6
20260902030215 59 200 8.0 12.0 0.00 0.00 0.00 92 1010.7
20260902025708 59 207 8.0 18.0 0.00 0.00 0.00 92 1010.7
20260902025659 59 207 8.0 18.0 0.00 0.00 0.00 92 1010.7
20260902025201 60 201 9.0 18.0 0.00 0.00 0.00 92 1010.6
20260902025142 60 201 11.0 18.0 0.00 0.00 0.00 92 1010.6
20260902024654 60 215 6.0 18.0 0.00 0.00 0.00 91 1010.8
20260902024625 60 215 8.0 18.0 0.00 0.00 0.00 91 1010.8
20260902024147 60 217 7.0 18.0 0.00 0.00 0.00 91 1010.8
20260902024108 60 217 6.0 18.0 0.00 0.00 0.00 91 1010.8
20260902023640 60 208 12.0 18.0 0.00 0.00 0.00 90 1010.8
20260902023551 60 208 12.0 18.0 0.00 0.00 0.00 90 1010.7
20260902023133 61 173 10.0 11.0 0.00 0.00 0.00 90 1010.7
20260902023036 61 189 7.0 11.0 0.00 0.00 0.00 90 1010.6
20260902022627 61 204 7.0 11.0 0.00 0.00 0.00 90 1010.7
20260902022517 61 204 8.0 11.0 0.00 0.00 0.00 90 1010.6
20260902022119 61 193 7.0 11.0 0.00 0.00 0.00 90 1010.5
20260902022000 61 193 8.0 11.0 0.00 0.00 0.00 90 1010.6
20260902021612 61 176 10.0 11.0 0.00 0.00 0.00 89 1010.6
20260902021445 61 168 6.0 11.0 0.00 0.00 0.00 90 1010.5
20260902021105 61 186 6.0 11.0 0.00 0.00 0.00 89 1010.5
20260902020927 61 224 3.0 11.0 0.00 0.00 0.00 89 1010.5
20260902020558 61 204 6.0 9.0 0.00 0.00 0.00 89 1010.6
20260902020411 61 186 1.0 3.0 0.00 0.00 0.00 89 1010.5
20260902020051 61 280 7.0 11.0 0.00 0.00 0.00 89 1010.6
20260902015852 61 214 5.0 11.0 0.00 0.00 0.00 89 1010.5
20260902015544 61 222 5.0 11.0 0.00 0.00 0.00 89 1010.5
20260902015339 61 189 2.0 11.0 0.00 0.00 0.00 89 1010.5
20260902015037 61 191 5.0 11.0 0.00 0.00 0.00 89 1010.5
20260902014818 61 210 4.0 11.0 0.00 0.00 0.00 88 1010.5
20260902014530 61 184 6.0 7.0 0.00 0.00 0.00 88 1010.5
20260902014301 61 207 7.0 12.0 0.00 0.00 0.00 88 1010.6
20260902014023 62 189 4.0 12.0 0.00 0.00 0.00 88 1010.5
20260902013744 62 197 4.0 12.0 0.00 0.00 0.00 87 1010.5
20260902013517 62 189 6.0 12.0 0.00 0.00 0.00 87 1010.6
20260902013227 62 200 6.0 12.0 0.00 0.00 0.00 87 1010.6
20260902013009 62 214 3.0 12.0 0.00 0.00 0.00 87 1010.6
20260902012712 62 159 9.0 12.0 0.00 0.00 0.00 87 1010.6
20260902012502 63 221 9.0 11.0 0.00 0.00 0.00 86 1010.7
20260902012153 63 225 4.0 11.0 0.00 0.00 0.00 87 1010.6
20260902011955 63 225 5.0 11.0 0.00 0.00 0.00 87 1010.6
20260902011636 63 254 3.0 11.0 0.00 0.00 0.00 87 1010.5
20260902011448 63 189 4.0 11.0 0.00 0.00 0.00 87 1010.3
20260902011119 63 205 6.0 11.0 0.00 0.00 0.00 87 1010.3
20260902010941 63 250 5.0 11.0 0.00 0.00 0.00 87 1010.3
20260902010435 63 204 6.0 9.0 0.00 0.00 0.00 87 1010.2
20260902010045 63 214 4.0 6.0 0.00 0.00 0.00 87 1010.3
20260902005927 63 163 4.0 4.0 0.00 0.00 0.00 87 1010.5
20260902005528 63 229 3.0 14.0 0.00 0.00 0.00 87 1010.5
20260902005420 63 229 6.0 14.0 0.00 0.00 0.00 87 1010.5
20260902005011 62 236 3.0 14.0 0.00 0.00 0.00 87 1010.6
20260902004913 62 236 3.0 14.0 0.00 0.00 0.00 87 1010.6
20260902004454 62 208 5.0 14.0 0.00 0.00 0.00 87 1010.5
20260902004406 62 208 3.0 14.0 0.00 0.00 0.00 87 1010.5
20260902003937 62 249 5.0 12.0 0.00 0.00 0.00 88 1010.5
20260902003900 62 249 6.0 12.0 0.00 0.00 0.00 88 1010.5
20260902003352 62 210 2.0 12.0 0.00 0.00 0.00 88 1010.6
20260902002903 62 168 5.0 12.0 0.00 0.00 0.00 87 1010.6
20260902002845 62 168 5.0 12.0 0.00 0.00 0.00 87 1010.6
20260902002347 62 197 9.0 12.0 0.00 0.00 0.00 87 1010.6
20260902001830 62 215 2.0 10.0 0.00 0.00 0.00 87 1010.7
20260902001324 62 226 6.0 10.0 0.00 0.00 0.00 87 1010.8
20260902001312 62 197 8.0 10.0 0.00 0.00 0.00 87 1010.8
20260902000817 62 228 6.0 11.0 0.00 0.00 0.00 87 1010.7
20260902000755 62 179 6.0 11.0 0.00 0.00 0.00 87 1010.7
20260902000312 62 212 5.0 11.0 0.00 0.00 0.00 87 1010.8
20260902000238 62 201 7.0 11.0 0.00 0.00 0.00 87 1010.8
20260901235803 62 215 8.0 11.0 0.00 0.00 0.00 86 1010.7
20260901235721 62 215 8.0 11.0 0.00 0.00 0.00 86 1010.7
20260901235256 63 197 5.0 13.0 0.00 0.00 0.00 86 1010.7
20260901235205 63 197 3.0 13.0 0.00 0.00 0.00 86 1010.7
20260901234749 62 194 5.0 13.0 0.00 0.00 0.00 86 1010.7
20260901234647 62 194 7.0 13.0 0.00 0.00 0.00 86 1010.8
20260901234130 63 176 5.0 13.0 0.00 0.00 0.00 85 1010.8
20260901233613 63 205 9.0 13.0 0.00 0.00 0.00 84 1010.9
20260901233056 63 187 7.0 11.0 0.00 0.00 0.00 84 1010.9
20260901232721 63 205 11.0 17.0 0.00 0.00 0.00 84 1010.9
20260901232540 63 194 8.0 17.0 0.00 0.00 0.00 83 1010.9
20260901232214 63 189 8.0 17.0 0.00 0.00 0.00 83 1010.9
20260901231707 64 194 8.0 17.0 0.00 0.00 0.00 82 1011.0
20260901231505 64 212 6.0 17.0 0.00 0.00 0.00 82 1011.0
20260901231200 64 173 6.0 15.0 0.00 0.00 0.00 82 1011.0
20260901230950 64 173 8.0 15.0 0.00 0.00 0.00 83 1011.0
20260901230653 64 208 7.0 15.0 0.00 0.00 0.00 82 1011.0
20260901230431 64 194 10.0 15.0 0.00 0.00 0.00 82 1011.0
20260901230146 64 169 10.0 14.0 0.00 0.00 0.00 81 1011.0
20260901225914 64 193 7.0 19.0 0.00 0.00 0.00 81 1011.0
20260901225639 64 183 9.0 19.0 0.00 0.00 0.00 81 1011.1
20260901225358 64 183 9.0 19.0 0.00 0.00 0.00 81 1011.0
20260901225132 64 200 9.0 19.0 0.00 0.00 0.00 81 1011.1
20260901224840 65 211 8.0 19.0 0.00 0.00 0.00 81 1011.1
20260901224625 64 215 9.0 19.0 0.00 0.00 0.00 82 1011.0
20260901224323 64 215 10.0 19.0 0.00 0.00 0.00 82 1011.1
20260901224118 64 184 11.0 14.0 0.00 0.00 0.00 82 1011.1
20260901223806 64 191 9.0 14.0 0.00 0.00 0.00 82 1011.1
20260901223611 64 191 8.0 14.0 0.00 0.00 0.00 82 1011.1
20260901223249 64 224 7.0 10.0 0.00 0.00 0.00 81 1011.0
20260901223105 64 224 8.0 10.0 0.00 0.00 0.00 81 1011.1
20260901222732 64 245 7.0 10.0 0.00 0.00 0.00 81 1011.1
20260901222557 64 190 5.0 8.0 0.00 0.00 0.00 81 1011.1
20260901222215 64 189 6.0 8.0 0.00 0.00 0.00 80 1011.1
20260901222050 64 282 3.0 8.0 0.00 0.00 0.00 80 1011.1
20260901221658 64 282 5.0 8.0 0.00 0.00 0.00 79 1011.1
20260901221543 65 282 5.0 8.0 0.00 0.00 0.00 79 1011.1
20260901221141 65 196 6.0 8.0 0.00 0.00 0.00 78 1011.1
20260901221036 65 226 5.0 11.0 0.00 0.00 0.00 78 1011.1
20260901220625 65 197 6.0 11.0 0.00 0.00 0.00 78 1011.1
20260901220529 65 197 4.0 11.0 0.00 0.00 0.00 78 1011.1
20260901220108 66 259 7.0 11.0 0.00 0.00 0.00 77 1011.0
20260901220022 66 259 5.0 11.0 0.00 0.00 0.00 77 1011.1
20260901215550 66 179 6.0 11.0 0.00 0.00 0.00 76 1011.1
20260901215515 66 219 3.0 11.0 0.00 0.00 0.00 76 1011.1
20260901215032 66 173 4.0 9.0 0.00 0.00 0.00 76 1011.2
20260901215007 66 173 4.0 9.0 0.00 0.00 0.00 76 1011.2
20260901214516 67 210 8.0 8.0 0.00 0.00 0.00 77 1011.1
20260901214500 67 281 5.0 6.0 0.00 0.00 0.00 77 1011.1
20260901213953 66 141 4.0 8.0 0.00 0.00 0.00 78 1011.1
20260901213441 65 238 5.0 8.0 0.00 0.00 0.00 79 1010.9
20260901212939 65 280 4.0 8.0 0.00 0.00 0.00 78 1010.9
20260901212924 65 280 4.0 8.0 0.00 0.00 0.00 78 1011.0
20260901212432 65 295 5.0 8.0 0.00 0.00 0.00 78 1011.0
20260901212407 65 221 5.0 8.0 0.00 0.00 0.00 78 1011.0
20260901211925 65 214 6.0 12.0 0.00 0.00 0.00 78 1011.0
20260901211850 65 302 5.0 12.0 0.00 0.00 0.00 78 1011.0
20260901210912 65 225 5.0 12.0 0.00 0.00 0.00 79 1010.9
20260901210816 65 0 0.0 12.0 0.00 0.00 0.00 79 1010.9
20260901210404 65 201 10.0 12.0 0.00 0.00 0.00 79 1010.9
20260901210259 65 207 6.0 8.0 0.00 0.00 0.00 79 1010.8
20260901205857 65 225 5.0 10.0 0.00 0.00 0.00 78 1010.9
20260901205742 65 271 4.0 10.0 0.00 0.00 0.00 78 1010.9
20260901205351 65 271 5.0 10.0 0.00 0.00 0.00 78 1011.0
20260901205225 65 308 4.0 10.0 0.00 0.00 0.00 78 1011.0
20260901204843 65 203 7.0 10.0 0.00 0.00 0.00 78 1011.0
20260901204708 65 179 3.0 10.0 0.00 0.00 0.00 78 1010.9
20260901204336 66 193 5.0 10.0 0.00 0.00 0.00 78 1010.9
20260901204151 66 197 5.0 10.0 0.00 0.00 0.00 78 1010.9
20260901203830 66 0 0.0 11.0 0.00 0.00 0.00 79 1011.0
20260901203634 66 246 3.0 11.0 0.00 0.00 0.00 79 1011.0
20260901203322 65 236 4.0 11.0 0.00 0.00 0.00 79 1011.0
20260901203117 65 224 5.0 11.0 0.00 0.00 0.00 79 1011.1
20260901202816 65 214 3.0 11.0 0.00 0.00 0.00 80 1011.1
20260901202308 65 0 0.0 11.0 0.00 0.00 0.00 81 1011.1
20260901202043 65 204 7.0 11.0 0.00 0.00 0.00 81 1011.1
20260901201801 65 218 7.0 11.0 0.00 0.00 0.00 81 1011.1
20260901201526 65 196 5.0 8.0 0.00 0.00 0.00 81 1011.1
20260901201254 64 285 3.0 13.0 0.00 0.00 0.00 81 1011.1
20260901201009 64 285 4.0 13.0 0.00 0.00 0.00 81 1011.1
20260901200747 64 208 5.0 13.0 0.00 0.00 0.00 81 1011.2
20260901200452 64 253 2.0 13.0 0.00 0.00 0.00 81 1011.2
20260901200240 65 201 8.0 13.0 0.00 0.00 0.00 81 1011.2
20260901195936 65 201 6.0 13.0 0.00 0.00 0.00 81 1011.2
20260901195734 65 194 10.0 13.0 0.00 0.00 0.00 81 1011.2
20260901195418 64 289 6.0 12.0 0.00 0.00 0.00 81 1011.0
20260901195226 64 197 6.0 12.0 0.00 0.00 0.00 81 1011.0
20260901194901 64 214 8.0 11.0 0.00 0.00 0.00 81 1010.9
20260901194719 64 217 6.0 11.0 0.00 0.00 0.00 81 1010.9
20260901194344 64 308 2.0 11.0 0.00 0.00 0.00 81 1011.0
20260901194212 64 159 7.0 11.0 0.00 0.00 0.00 81 1010.9
20260901193828 64 144 1.0 10.0 0.00 0.00 0.00 81 1010.9
20260901193705 64 172 7.0 10.0 0.00 0.00 0.00 81 1011.0
20260901193310 64 204 4.0 9.0 0.00 0.00 0.00 81 1011.0
20260901193158 64 204 4.0 12.0 0.00 0.00 0.00 81 1011.0
20260901192753 64 243 5.0 12.0 0.00 0.00 0.00 81 1011.0
20260901192651 64 243 4.0 12.0 0.00 0.00 0.00 80 1011.0
20260901192237 64 212 7.0 12.0 0.00 0.00 0.00 80 1011.1
20260901192144 64 212 5.0 12.0 0.00 0.00 0.00 80 1011.1
20260901191719 65 214 10.0 12.0 0.00 0.00 0.00 80 1011.1
20260901191638 65 214 6.0 12.0 0.00 0.00 0.00 80 1011.1
20260901191202 65 179 4.0 11.0 0.00 0.00 0.00 81 1011.1
20260901191130 65 179 7.0 11.0 0.00 0.00 0.00 81 1011.1
20260901190645 64 207 3.0 11.0 0.00 0.00 0.00 82 1011.0
20260901190623 64 207 3.0 11.0 0.00 0.00 0.00 82 1011.2
20260901190128 64 226 7.0 11.0 0.00 0.00 0.00 82 1011.2
20260901190116 64 226 7.0 11.0 0.00 0.00 0.00 82 1011.2
20260901185609 64 212 9.0 11.0 0.00 0.00 0.00 82 1011.2
20260901185102 64 203 4.0 10.0 0.00 0.00 0.00 82 1011.0
20260901185054 64 203 4.0 10.0 0.00 0.00 0.00 82 1011.0
20260901184555 64 224 5.0 10.0 0.00 0.00 0.00 83 1011.0
20260901184537 64 224 5.0 10.0 0.00 0.00 0.00 83 1011.0
20260901184049 64 204 6.0 10.0 0.00 0.00 0.00 83 1011.0
20260901184021 64 190 3.0 7.0 0.00 0.00 0.00 83 1011.1
20260901183541 64 184 4.0 12.0 0.00 0.00 0.00 83 1011.1
20260901183504 64 184 4.0 12.0 0.00 0.00 0.00 83 1011.1
20260901183034 64 198 3.0 12.0 0.00 0.00 0.00 83 1011.0
20260901182946 64 198 4.0 12.0 0.00 0.00 0.00 83 1011.0
20260901182527 63 190 10.0 12.0 0.00 0.00 0.00 84 1011.1
20260901182429 63 264 6.0 12.0 0.00 0.00 0.00 84 1011.0
20260901182021 63 176 9.0 12.0 0.00 0.00 0.00 84 1011.0
20260901181912 63 288 4.0 11.0 0.00 0.00 0.00 84 1011.1
20260901181513 63 180 8.0 11.0 0.00 0.00 0.00 85 1011.0
20260901181355 63 221 5.0 10.0 0.00 0.00 0.00 85 1011.0
20260901181006 63 231 7.0 10.0 0.00 0.00 0.00 86 1011.0
20260901180838 63 221 6.0 10.0 0.00 0.00 0.00 86 1011.0
20260901180459 63 210 6.0 10.0 0.00 0.00 0.00 87 1011.0
20260901180321 63 224 5.0 8.0 0.00 0.00 0.00 87 1011.0
20260901175952 62 194 5.0 8.0 0.00 0.00 0.00 87 1010.9
20260901175804 62 203 6.0 8.0 0.00 0.00 0.00 88 1011.0
20260901175445 62 288 2.0 5.0 0.00 0.00 0.00 88 1011.0
20260901175247 62 225 7.0 10.0 0.00 0.00 0.00 88 1011.0
20260901174938 62 200 3.0 10.0 0.00 0.00 0.00 89 1011.0
20260901174730 62 226 4.0 10.0 0.00 0.00 0.00 89 1011.0
20260901174431 62 231 6.0 10.0 0.00 0.00 0.00 90 1011.0
20260901174213 62 183 7.0 10.0 0.00 0.00 0.00 90 1011.0
20260901173924 62 183 8.0 10.0 0.00 0.00 0.00 90 1011.0
20260901173656 62 200 8.0 10.0 0.00 0.00 0.00 91 1011.0
20260901173417 62 211 4.0 9.0 0.00 0.00 0.00 91 1010.9
20260901173139 62 207 7.0 9.0 0.00 0.00 0.00 92 1011.0
20260901172910 62 182 2.0 9.0 0.00 0.00 0.00 92 1011.0
20260901172622 62 200 6.0 9.0 0.00 0.00 0.00 92 1011.0
20260901172403 62 189 7.0 9.0 0.00 0.00 0.00 93 1011.0
20260901172105 62 236 2.0 9.0 0.00 0.00 0.00 93 1011.0
20260901171857 61 0 0.0 9.0 0.00 0.00 0.00 94 1011.0
20260901171349 61 231 5.0 7.0 0.00 0.00 0.00 94 1011.0
20260901171031 61 186 5.0 7.0 0.00 0.00 0.00 95 1010.9
20260901170842 61 0 0.0 7.0 0.00 0.00 0.00 95 1010.9
20260901170514 61 201 6.0 7.0 0.00 0.00 0.00 95 1011.0
20260901170337 61 225 5.0 5.0 0.00 0.00 0.00 96 1010.9
20260901165957 60 0 0.0 0.0 0.00 0.00 0.00 96 1010.9
20260901165440 60 183 1.0 8.0 0.00 0.00 0.00 96 1011.0
20260901165321 60 0 0.0 8.0 0.00 0.00 0.00 97 1011.0
20260901164923 60 0 0.0 8.0 0.00 0.00 0.00 97 1010.9
20260901164814 60 0 0.0 8.0 0.00 0.00 0.00 97 1010.9
20260901164406 60 172 5.0 8.0 0.00 0.00 0.00 97 1010.9
20260901163849 60 0 0.0 4.0 0.00 0.00 0.00 98 1010.9
20260901163800 60 0 0.0 4.0 0.00 0.00 0.00 98 1010.9
20260901163253 59 184 2.0 4.0 0.00 0.00 0.00 98 1010.8
20260901162815 59 196 1.0 9.0 0.00 0.00 0.00 98 1010.9
20260901162746 59 201 5.0 9.0 0.00 0.00 0.00 98 1010.9
20260901162258 59 205 3.0 9.0 0.00 0.00 0.00 99 1010.9
20260901162239 59 205 3.0 9.0 0.00 0.00 0.00 99 1010.9
20260901161741 59 175 7.0 9.0 0.00 0.00 0.00 99 1010.9
20260901161732 59 175 7.0 9.0 0.00 0.00 0.00 99 1011.0
20260901161224 59 203 6.0 9.0 0.00 0.00 0.00 99 1011.0
20260901160718 59 200 6.0 8.0 0.00 0.00 0.00 99 1011.0
20260901160707 59 200 6.0 8.0 0.00 0.00 0.00 99 1011.0
20260901160211 59 200 5.0 8.0 0.00 0.00 0.00 99 1011.0
20260901160150 59 200 5.0 8.0 0.00 0.00 0.00 99 1011.0
20260901155704 58 215 7.0 11.0 0.00 0.00 0.00 100 1010.9
20260901155633 59 215 7.0 11.0 0.00 0.00 0.00 100 1010.9
20260901155157 58 191 5.0 11.0 0.00 0.00 0.00 100 1010.9
20260901155116 58 191 6.0 11.0 0.00 0.00 0.00 100 1010.9
20260901154650 58 247 5.0 11.0 0.00 0.00 0.00 100 1010.9
20260901154143 58 242 3.0 7.0 0.00 0.00 0.00 100 1010.9
20260901154042 58 242 3.0 7.0 0.00 0.00 0.00 100 1010.9
20260901153636 58 127 2.0 10.0 0.00 0.00 0.00 100 1010.9
20260901153525 57 0 0.0 10.0 0.00 0.00 0.00 100 1010.9
20260901153129 57 212 4.0 10.0 0.00 0.00 0.00 100 1010.9
20260901153008 57 207 4.0 10.0 0.00 0.00 0.00 100 1010.9
20260901152622 57 201 4.0 10.0 0.00 0.00 0.00 100 1010.9
20260901152452 57 243 4.0 10.0 0.00 0.00 0.00 100 1011.0
20260901152115 57 198 9.0 10.0 0.00 0.00 0.00 100 1010.9
20260901151934 57 198 7.0 10.0 0.00 0.00 0.00 100 1011.0
20260901151608 57 197 3.0 9.0 0.00 0.00 0.00 100 1010.9
20260901151417 57 197 3.0 9.0 0.00 0.00 0.00 100 1011.0
20260901151102 57 193 4.0 9.0 0.00 0.00 0.00 100 1010.9
20260901150900 57 207 5.0 9.0 0.00 0.00 0.00 100 1010.9
20260901150554 57 218 8.0 9.0 0.00 0.00 0.00 100 1010.8
20260901150343 57 169 4.0 11.0 0.00 0.00 0.00 100 1010.9
20260901150047 57 197 5.0 11.0 0.00 0.00 0.00 100 1010.8
20260901145826 57 236 5.0 11.0 0.00 0.00 0.00 100 1010.8
20260901145310 57 0 0.0 11.0 0.00 0.00 0.00 100 1010.7
20260901145033 57 246 3.0 11.0 0.00 0.00 0.00 100 1010.7
20260901144752 57 208 8.0 11.0 0.00 0.00 0.00 100 1010.7
20260901144526 57 208 6.0 9.0 0.00 0.00 0.00 100 1010.6
20260901144235 57 208 4.0 9.0 0.00 0.00 0.00 100 1010.7
20260901144019 57 208 5.0 9.0 0.00 0.00 0.00 100 1010.7
20260901143718 57 180 7.0 9.0 0.00 0.00 0.00 100 1010.6
20260901143512 57 180 4.0 9.0 0.00 0.00 0.00 100 1010.6
20260901143201 57 201 2.0 8.0 0.00 0.00 0.00 100 1010.6
20260901143005 57 201 2.0 8.0 0.00 0.00 0.00 100 1010.6
20260901142644 57 215 7.0 8.0 0.00 0.00 0.00 100 1010.6
20260901142458 57 215 4.0 10.0 0.00 0.00 0.00 100 1010.5
20260901142127 57 186 6.0 10.0 0.00 0.00 0.00 100 1010.5
20260901141951 57 186 4.0 10.0 0.00 0.00 0.00 100 1010.5
20260901141610 57 225 3.0 10.0 0.00 0.00 0.00 100 1010.4
20260901141444 57 225 3.0 10.0 0.00 0.00 0.00 100 1010.4
20260901141053 57 196 6.0 10.0 0.00 0.00 0.00 100 1010.5
20260901140937 57 173 6.0 10.0 0.00 0.00 0.00 100 1010.4
20260901140536 57 182 6.0 8.0 0.00 0.00 0.00 100 1010.4
20260901140430 57 182 7.0 9.0 0.00 0.00 0.00 100 1010.4
20260901140019 57 205 6.0 9.0 0.00 0.00 0.00 100 1010.5
20260901135923 57 214 7.0 9.0 0.00 0.00 0.00 100 1010.5
20260901135502 57 238 3.0 9.0 0.00 0.00 0.00 100 1010.4
20260901135416 57 238 4.0 9.0 0.00 0.00 0.00 100 1010.4
20260901134945 57 208 2.0 9.0 0.00 0.00 0.00 100 1010.4
20260901134909 57 208 2.0 9.0 0.00 0.00 0.00 100 1010.4
20260901134428 57 186 3.0 8.0 0.00 0.00 0.00 100 1010.3
20260901134402 57 186 6.0 8.0 0.00 0.00 0.00 100 1010.3
20260901133911 57 197 4.0 11.0 0.00 0.00 0.00 100 1010.4
20260901133855 57 197 2.0 11.0 0.00 0.00 0.00 100 1010.4
20260901133354 57 197 5.0 11.0 0.00 0.00 0.00 100 1010.2
20260901133348 57 197 3.0 11.0 0.00 0.00 0.00 100 1010.2
20260901132842 57 162 2.0 11.0 0.00 0.00 0.00 100 1010.2
20260901132837 57 162 4.0 11.0 0.00 0.00 0.00 100 1010.2
20260901132336 57 182 4.0 11.0 0.00 0.00 0.00 100 1010.2
20260901132320 57 182 4.0 11.0 0.00 0.00 0.00 100 1010.2
20260901131803 57 184 6.0 8.0 0.00 0.00 0.00 100 1010.2
20260901131320 57 196 5.0 11.0 0.00 0.00 0.00 100 1010.2
20260901131246 57 166 6.0 11.0 0.00 0.00 0.00 100 1010.2
20260901130813 57 0 0.0 11.0 0.00 0.00 0.00 100 1010.1
20260901130730 57 228 4.0 11.0 0.00 0.00 0.00 100 1010.1
20260901130306 57 225 8.0 11.0 0.00 0.00 0.00 100 1010.1
20260901130212 57 197 4.0 11.0 0.00 0.00 0.00 100 1010.1
20260901125759 57 196 5.0 11.0 0.00 0.00 0.00 100 1010.1
20260901125655 57 196 7.0 11.0 0.00 0.00 0.00 100 1010.1
20260901125252 57 0 0.0 8.0 0.00 0.00 0.00 100 1010.1
20260901125138 57 0 0.0 8.0 0.00 0.00 0.00 100 1010.1
20260901124745 57 208 4.0 8.0 0.00 0.00 0.00 100 1010.1
20260901124621 57 208 3.0 8.0 0.00 0.00 0.00 100 1010.1
20260901124238 57 196 3.0 8.0 0.00 0.00 0.00 100 1010.0
20260901124104 57 196 5.0 8.0 0.00 0.00 0.00 100 1010.1
20260901123731 57 196 6.0 8.0 0.00 0.00 0.00 100 1010.1
20260901123547 57 196 4.0 8.0 0.00 0.00 0.00 100 1010.1
20260901123224 57 204 3.0 6.0 0.00 0.00 0.00 100 1010.1
20260901123030 57 204 5.0 9.0 0.00 0.00 0.00 100 1010.1
20260901122717 57 186 6.0 9.0 0.00 0.00 0.00 100 1010.1
20260901122513 57 204 5.0 9.0 0.00 0.00 0.00 100 1010.0
20260901122210 57 203 6.0 9.0 0.00 0.00 0.00 100 1010.0
20260901121956 57 203 3.0 9.0 0.00 0.00 0.00 100 1010.1
20260901121703 57 201 7.0 9.0 0.00 0.00 0.00 100 1010.2
20260901121439 57 201 4.0 9.0 0.00 0.00 0.00 100 1010.2
20260901121156 57 201 5.0 8.0 0.00 0.00 0.00 100 1010.2
20260901120922 57 201 2.0 8.0 0.00 0.00 0.00 100 1010.2
20260901120649 57 182 6.0 8.0 0.00 0.00 0.00 100 1010.2
20260901120405 57 203 5.0 8.0 0.00 0.00 0.00 100 1010.2
20260901120142 57 245 4.0 8.0 0.00 0.00 0.00 100 1010.3
20260901115848 57 168 2.0 7.0 0.00 0.00 0.00 100 1010.2
20260901115635 57 204 7.0 7.0 0.00 0.00 0.00 100 1010.2
20260901115128 57 221 5.0 10.0 0.00 0.00 0.00 100 1010.2
20260901114814 57 0 0.0 10.0 0.00 0.00 0.00 100 1010.2
20260901114621 57 201 3.0 10.0 0.00 0.00 0.00 100 1010.2
20260901114257 57 201 6.0 10.0 0.00 0.00 0.00 100 1010.2
20260901114114 57 201 7.0 10.0 0.00 0.00 0.00 100 1010.2
20260901113607 57 193 5.0 10.0 0.00 0.00 0.00 100 1010.2
20260901113223 57 226 4.0 8.0 0.00 0.00 0.00 100 1010.1
20260901112706 57 191 5.0 5.0 0.00 0.00 0.00 100 1010.2
20260901112046 57 254 2.0 10.0 0.00 0.00 0.00 100 1010.2
20260901111632 57 225 4.0 10.0 0.00 0.00 0.00 100 1010.2
20260901111539 57 225 4.0 10.0 0.00 0.00 0.00 100 1010.2
20260901111117 57 179 7.0 10.0 0.00 0.00 0.00 100 1010.2
20260901111032 57 179 5.0 10.0 0.00 0.00 0.00 100 1010.2
20260901110526 57 205 6.0 8.0 0.00 0.00 0.00 100 1010.2
20260901110041 57 201 5.0 8.0 0.00 0.00 0.00 100 1010.2
20260901110018 57 201 6.0 8.0 0.00 0.00 0.00 100 1010.2
20260901105524 57 173 4.0 10.0 0.00 0.00 0.00 99 1010.2
20260901105511 57 173 5.0 10.0 0.00 0.00 0.00 99 1010.2
20260901105004 57 194 6.0 10.0 0.00 0.00 0.00 99 1010.1
20260901104450 57 225 4.0 10.0 0.00 0.00 0.00 99 1010.1
20260901103951 57 193 7.0 10.0 0.00 0.00 0.00 99 1010.2
20260901103933 57 193 6.0 10.0 0.00 0.00 0.00 99 1010.2
20260901103443 57 0 0.0 9.0 0.00 0.00 0.00 99 1010.0
20260901103415 57 0 0.0 9.0 0.00 0.00 0.00 99 1010.2
20260901102936 57 226 5.0 12.0 0.00 0.00 0.00 99 1010.2
20260901102859 57 226 5.0 12.0 0.00 0.00 0.00 99 1010.2
20260901102429 57 233 7.0 12.0 0.00 0.00 0.00 99 1010.2
20260901102341 57 235 3.0 12.0 0.00 0.00 0.00 99 1010.0
20260901101922 57 175 8.0 12.0 0.00 0.00 0.00 99 1010.2
20260901101825 57 0 0.0 12.0 0.00 0.00 0.00 99 1010.0
20260901101415 57 176 10.0 12.0 0.00 0.00 0.00 99 1010.0
20260901101307 57 0 0.0 10.0 0.00 0.00 0.00 99 1010.0
20260901100908 57 201 3.0 9.0 0.00 0.00 0.00 99 1010.0
20260901100750 57 200 5.0 9.0 0.00 0.00 0.00 99 1010.0
20260901100401 57 0 0.0 9.0 0.00 0.00 0.00 98 1009.9
20260901100233 57 284 4.0 9.0 0.00 0.00 0.00 98 1010.0
20260901095854 57 284 4.0 9.0 0.00 0.00 0.00 98 1010.0
20260901095716 57 203 4.0 9.0 0.00 0.00 0.00 98 1010.0
20260901095347 57 0 0.0 9.0 0.00 0.00 0.00 98 1009.9
20260901095159 57 218 4.0 9.0 0.00 0.00 0.00 98 1009.9
20260901094840 57 263 2.0 9.0 0.00 0.00 0.00 98 1009.9
20260901094642 57 193 9.0 9.0 0.00 0.00 0.00 98 1009.9
20260901094125 57 200 7.0 14.0 0.00 0.00 0.00 98 1009.9
20260901093608 57 240 5.0 14.0 0.00 0.00 0.00 98 1009.9
20260901093319 57 0 0.0 14.0 0.00 0.00 0.00 98 1009.9
20260901093051 57 232 6.0 14.0 0.00 0.00 0.00 98 1009.9
20260901092811 57 0 0.0 14.0 0.00 0.00 0.00 98 1010.0
20260901092534 57 232 6.0 10.0 0.00 0.00 0.00 98 1010.0
20260901092305 57 200 7.0 10.0 0.00 0.00 0.00 98 1010.0
20260901092017 57 207 4.0 10.0 0.00 0.00 0.00 98 1010.2
20260901091757 57 215 8.0 10.0 0.00 0.00 0.00 98 1010.1
20260901091500 57 215 4.0 10.0 0.00 0.00 0.00 98 1010.1
20260901091250 57 177 5.0 10.0 0.00 0.00 0.00 98 1010.1
20260901090943 57 177 5.0 10.0 0.00 0.00 0.00 97 1010.0
20260901090743 57 196 6.0 9.0 0.00 0.00 0.00 97 1010.0
20260901090426 57 197 3.0 9.0 0.00 0.00 0.00 97 1010.0
20260901090237 57 236 4.0 9.0 0.00 0.00 0.00 97 1010.1
20260901085730 57 226 5.0 6.0 0.00 0.00 0.00 97 1010.1
20260901085352 58 0 0.0 10.0 0.00 0.00 0.00 97 1010.1
20260901085222 58 211 3.0 10.0 0.00 0.00 0.00 97 1010.0
20260901084835 58 0 0.0 10.0 0.00 0.00 0.00 97 1010.1
20260901084715 58 162 5.0 10.0 0.00 0.00 0.00 97 1010.1
20260901084320 58 0 0.0 10.0 0.00 0.00 0.00 97 1010.0
20260901084209 58 243 3.0 10.0 0.00 0.00 0.00 97 1010.0
20260901083801 58 0 0.0 10.0 0.00 0.00 0.00 97 1010.0
20260901083701 58 204 5.0 10.0 0.00 0.00 0.00 97 1010.0
20260901083244 58 219 2.0 4.0 0.00 0.00 0.00 97 1010.0
20260901083154 58 219 2.0 4.0 0.00 0.00 0.00 97 1010.0
20260901082647 58 222 4.0 9.0 0.00 0.00 0.00 97 1010.0
20260901082210 58 247 3.0 9.0 0.00 0.00 0.00 97 1010.0
20260901082140 58 247 5.0 9.0 0.00 0.00 0.00 97 1010.0
20260901081653 58 217 2.0 9.0 0.00 0.00 0.00 97 1010.0
20260901081633 58 217 2.0 9.0 0.00 0.00 0.00 97 1010.0
20260901081138 58 201 4.0 9.0 0.00 0.00 0.00 97 1010.1
20260901081127 58 201 6.0 9.0 0.00 0.00 0.00 97 1010.0
20260901080619 58 201 4.0 9.0 0.00 0.00 0.00 97 1010.1
20260901080228 58 219 4.0 9.0 0.00 0.00 0.00 97 1010.0
20260901080112 58 219 4.0 9.0 0.00 0.00 0.00 97 1010.0
20260901075605 58 187 3.0 9.0 0.00 0.00 0.00 97 1010.0
20260901075545 58 187 3.0 9.0 0.00 0.00 0.00 97 1010.0
20260901075029 58 210 6.0 9.0 0.00 0.00 0.00 97 1009.9
20260901074551 58 191 3.0 11.0 0.00 0.00 0.00 97 1009.9
20260901074511 58 191 5.0 11.0 0.00 0.00 0.00 97 1009.9
20260901074044 58 194 3.0 11.0 0.00 0.00 0.00 97 1009.9
20260901073537 58 186 5.0 11.0 0.00 0.00 0.00 96 1010.0
20260901073437 58 225 4.0 11.0 0.00 0.00 0.00 96 1010.0
20260901073030 58 201 5.0 11.0 0.00 0.00 0.00 96 1009.8
20260901072920 58 207 6.0 10.0 0.00 0.00 0.00 96 1009.9
20260901072523 58 179 5.0 8.0 0.00 0.00 0.00 96 1009.9
20260901072404 58 179 5.0 8.0 0.00 0.00 0.00 96 1009.8
20260901072017 58 191 3.0 8.0 0.00 0.00 0.00 96 1009.9
20260901071846 58 191 5.0 8.0 0.00 0.00 0.00 96 1009.9
20260901071509 58 208 6.0 11.0 0.00 0.00 0.00 96 1009.9
20260901071002 58 218 2.0 11.0 0.00 0.00 0.00 96 1009.9
20260901070812 58 218 4.0 11.0 0.00 0.00 0.00 96 1010.0
20260901070455 58 226 5.0 11.0 0.00 0.00 0.00 96 1009.9
20260901070256 58 239 5.0 11.0 0.00 0.00 0.00 96 1009.9
20260901065948 58 239 5.0 11.0 0.00 0.00 0.00 96 1010.1
20260901065739 58 197 4.0 10.0 0.00 0.00 0.00 96 1010.1
20260901065441 58 222 6.0 10.0 0.00 0.00 0.00 95 1010.0
20260901065221 58 196 7.0 10.0 0.00 0.00 0.00 95 1009.9
20260901064934 58 196 5.0 10.0 0.00 0.00 0.00 95 1010.0
20260901064704 58 175 8.0 10.0 0.00 0.00 0.00 95 1010.0
20260901064427 58 215 5.0 6.0 0.00 0.00 0.00 95 1010.0
20260901064147 58 208 6.0 14.0 0.00 0.00 0.00 95 1010.0
20260901063920 58 175 6.0 14.0 0.00 0.00 0.00 95 1010.0
20260901063630 58 217 7.0 14.0 0.00 0.00 0.00 95 1010.0
20260901063413 58 217 6.0 14.0 0.00 0.00 0.00 95 1010.0
20260901063113 58 184 4.0 14.0 0.00 0.00 0.00 95 1010.0
20260901062907 58 226 1.0 14.0 0.00 0.00 0.00 95 1009.9
20260901062558 58 187 3.0 10.0 0.00 0.00 0.00 95 1009.9
20260901062359 58 208 6.0 10.0 0.00 0.00 0.00 95 1009.9
20260901062039 58 190 6.0 10.0 0.00 0.00 0.00 94 1009.9
20260901061852 58 175 2.0 10.0 0.00 0.00 0.00 94 1009.9
20260901061522 58 156 6.0 10.0 0.00 0.00 0.00 94 1009.8
20260901061345 58 156 7.0 10.0 0.00 0.00 0.00 94 1009.9
20260901061005 58 177 8.0 9.0 0.00 0.00 0.00 94 1010.0
20260901060838 58 232 2.0 9.0 0.00 0.00 0.00 94 1010.0
20260901060448 59 232 5.0 8.0 0.00 0.00 0.00 94 1010.0
20260901055931 59 0 0.0 3.0 0.00 0.00 0.00 94 1010.0
20260901055824 59 0 0.0 3.0 0.00 0.00 0.00 94 1010.0
20260901055414 59 0 0.0 5.0 0.00 0.00 0.00 94 1010.2
20260901055317 59 0 0.0 5.0 0.00 0.00 0.00 94 1010.1
20260901054857 59 0 0.0 5.0 0.00 0.00 0.00 94 1010.1
20260901054812 59 0 0.0 5.0 0.00 0.00 0.00 94 1010.1
20260901054340 59 0 0.0 5.0 0.00 0.00 0.00 94 1010.1
20260901054303 59 0 0.0 5.0 0.00 0.00 0.00 94 1010.0
20260901053823 59 0 0.0 5.0 0.00 0.00 0.00 94 1010.0
20260901053757 59 200 2.0 5.0 0.00 0.00 0.00 94 1010.0
20260901053306 59 0 0.0 7.0 0.00 0.00 0.00 94 1010.1
20260901052742 59 232 2.0 7.0 0.00 0.00 0.00 94 1010.0
20260901052232 59 183 3.0 7.0 0.00 0.00 0.00 94 1010.0
20260901051730 59 186 2.0 4.0 0.00 0.00 0.00 94 1010.0
20260901051715 59 186 2.0 4.0 0.00 0.00 0.00 94 1010.0
20260901051221 59 148 2.0 4.0 0.00 0.00 0.00 94 1010.0
20260901051158 59 148 3.0 4.0 0.00 0.00 0.00 94 1010.0
20260901050714 59 201 5.0 8.0 0.00 0.00 0.00 94 1010.0
20260901050642 59 201 3.0 8.0 0.00 0.00 0.00 94 1010.0
20260901050207 59 138 2.0 8.0 0.00 0.00 0.00 94 1010.0
20260901050124 59 138 2.0 8.0 0.00 0.00 0.00 94 1009.9
20260901045701 59 200 4.0 8.0 0.00 0.00 0.00 94 1010.1
20260901045607 59 203 1.0 8.0 0.00 0.00 0.00 94 1010.0
20260901045153 59 163 4.0 8.0 0.00 0.00 0.00 94 1010.0
20260901045050 59 163 7.0 8.0 0.00 0.00 0.00 94 1010.1
20260901044646 59 208 5.0 8.0 0.00 0.00 0.00 94 1010.0
20260901044536 59 208 4.0 8.0 0.00 0.00 0.00 94 1010.1
20260901044139 59 203 7.0 8.0 0.00 0.00 0.00 94 1010.1
20260901044016 59 173 4.0 8.0 0.00 0.00 0.00 94 1010.0
20260901043632 59 177 3.0 7.0 0.00 0.00 0.00 94 1010.0
20260901043459 59 177 5.0 7.0 0.00 0.00 0.00 93 1009.9
20260901043125 59 194 5.0 6.0 0.00 0.00 0.00 93 1009.9
20260901042942 59 190 2.0 6.0 0.00 0.00 0.00 93 1009.8
20260901042618 59 0 0.0 6.0 0.00 0.00 0.00 93 1009.8
20260901042425 59 0 0.0 6.0 0.00 0.00 0.00 93 1009.8
20260901042111 59 201 2.0 6.0 0.00 0.00 0.00 93 1009.8
20260901041908 59 201 2.0 6.0 0.00 0.00 0.00 93 1009.8
20260901041604 59 0 0.0 6.0 0.00 0.00 0.00 93 1009.8
20260901041351 59 0 0.0 6.0 0.00 0.00 0.00 93 1009.8
20260901040834 59 0 0.0 6.0 0.00 0.00 0.00 93 1009.8
20260901040550 59 183 3.0 8.0 0.00 0.00 0.00 93 1009.8
20260901040317 59 0 0.0 8.0 0.00 0.00 0.00 92 1010.0
20260901040043 59 217 1.0 8.0 0.00 0.00 0.00 92 1010.0
20260901035800 59 214 3.0 8.0 0.00 0.00 0.00 92 1009.9
20260901035536 59 214 5.0 8.0 0.00 0.00 0.00 92 1009.8
20260901035243 59 176 3.0 8.0 0.00 0.00 0.00 92 1009.8
20260901035029 59 176 3.0 8.0 0.00 0.00 0.00 92 1009.8
20260901034522 59 191 5.0 9.0 0.00 0.00 0.00 92 1009.7
20260901034209 59 219 2.0 9.0 0.00 0.00 0.00 92 1009.7
20260901034015 59 219 4.0 9.0 0.00 0.00 0.00 92 1009.6
20260901033652 59 221 2.0 9.0 0.00 0.00 0.00 92 1009.6
20260901033508 59 190 1.0 9.0 0.00 0.00 0.00 92 1009.6
20260901033135 59 197 4.0 9.0 0.00 0.00 0.00 91 1009.5
20260901033001 59 197 4.0 9.0 0.00 0.00 0.00 91 1009.5
20260901032618 59 231 1.0 3.0 0.00 0.00 0.00 91 1009.4
20260901032454 59 231 1.0 10.0 0.00 0.00 0.00 91 1009.5
20260901032101 59 169 2.0 10.0 0.00 0.00 0.00 91 1009.3
20260901031947 59 169 3.0 10.0 0.00 0.00 0.00 91 1009.3